Starlink 35335

operational
NORAD ID: 66181 Int'l Des: 2025-243 Owner: SPXS Country: US Constellation: starlink
LEOCIRCULAR

About Starlink 35335

Description loading...

Live Position

Loading 3D Globe...

Upcoming Passes

Altitude History

Altitude vs Time

uPlot chart will show altitude changes over time

Two-Line Element Set

1 66181C 25243D 25299.73659722 .00785630 00000+0 12863-2 0 2999
2 66181 53.1580 157.0689 0008929 275.3683 23.9708 16.01654337 10
Epoch: Oct 26, 2025 • Age: 117 hours

Current Status

Altitude 252.9 km
Velocity 7.76 km/s
Sub-Earth Point 33.51°N, 174.83°E
Launch Date Oct 26, 2025
Age 4 days
Type internet

Technical Details

Classification Payload
Mass 575.00 kg
Dry Mass 530.00 kg
Total Mass 575.00 kg
Length 0.30 m
Diameter 4.10 m
Span 29.00 m
Shape Box + pan
Manufacturer SPXS
Bus Type Starlink V2MO
Phase Status In Orbit
Owner/State SPXS/US

Large Constellations

Loading constellations...